Vertical_Velocity
19 20 8 -1 14 -4 3 7 12 1 5 0 2 0 -0 0 -1 0 -1 2 3 -0
3 -6 37 17 -2 -5 4 1 -1 -2 4 -2 4 -2 2 1 -1 0 -1 1 0 1
-8 -0 24 -15 6 -6 7 -10 0 3 -0 3 -1 4 2 -3 -1 -0 -1 -0 1 1
20 -7 2 7 10 -1 2 1 -4 1 -3 7 1 3 4 -1 -2 -3 -0 3 1 1
50 8 5 9 13 0 5 7 -0 -3 -1 3 3 5 1 1 1 -1 4 -1 2 -1
10 25 50 2 10 4 -5 1 -7 3 -1 -1 9 2 -1 -2 -0 1 3 0 2 -3
18 2 1 15 -1 1 7 -2 8 9 4 -1 1 6 -1 -1 -1 2 4 -2 -1 0
46 0 47 8 9 7 -0 -1 2 -2 1 -6 0 8 2 1 3 1 4 -4 -2 2
5 -4 48 9 -1 -3 -8 1 -4 -4 2 -1 2 6 0 -0 2 -2 -3 5 -2 1
-3 -9 24 6 5 4 7 2 -2 1 1 -1 3 3 -0 -0 -2 -1 2 -0 4 3
13 15 9 11 0 4 10 4 2 0 0 1 4 1 -0 -5 -3 1 -1 1 3 -0
35 4 43 -5 1 -1 -1 -6 3 0 -2 2 5 2 -2 -3 -1 -1 4 2 0 0
63 -1 6 18 9 9 5 2 -2 -0 3 3 -0 5 1 -2 2 -3 4 -4 0 2
11 7 5 7 6 7 3 2 -2 -2 2 -2 1 3 -0 -2 1 3 1 1 -2 1
Height
5614 5619 5635 5656 5663 5676 5691 5701 5708 5716 5722 5728 5733 5738 5742 5746 5750 5753 5757 5759 5762 5763
5601 5620 5626 5638 5654 5668 5681 5693 5699 5705 5711 5718 5723 5729 5734 5738 5742 5746 5749 5751 5754 5755
5590 5607 5617 5637 5646 5658 5671 5680 5687 5694 5702 5708 5714 5719 5725 5730 5733 5737 5740 5743 5745 5748
5585 5596 5610 5622 5634 5651 5663 5672 5679 5686 5694 5699 5704 5711 5717 5720 5724 5728 5731 5734 5737 5738
5577 5588 5602 5616 5626 5641 5651 5661 5672 5677 5684 5689 5695 5702 5707 5711 5716 5719 5722 5726 5727 5729
5568 5577 5595 5608 5620 5629 5640 5652 5661 5669 5676 5681 5688 5693 5697 5704 5706 5710 5713 5716 5718 5721
5564 5576 5589 5601 5612 5622 5631 5639 5653 5659 5666 5673 5679 5683 5688 5693 5697 5701 5704 5707 5709 5710
5557 5573 5580 5589 5601 5614 5623 5632 5643 5650 5657 5663 5668 5673 5680 5685 5689 5691 5694 5697 5698 5700
5560 5571 5576 5583 5596 5604 5612 5622 5633 5640 5647 5653 5660 5666 5672 5676 5678 5682 5685 5687 5688 5690
5555 5565 5570 5576 5586 5595 5605 5613 5623 5630 5637 5645 5650 5657 5662 5665 5668 5672 5675 5677 5679 5682
5543 5552 5562 5566 5577 5588 5596 5604 5612 5621 5629 5636 5642 5647 5651 5655 5658 5661 5664 5666 5670 5673
5535 5546 5551 5561 5568 5577 5585 5594 5602 5611 5619 5626 5632 5637 5641 5644 5646 5649 5653 5656 5659 5661
5529 5536 5545 5552 5560 5568 5576 5585 5594 5601 5609 5615 5621 5625 5629 5631 5635 5638 5641 5645 5647 5650
5519 5527 5536 5545 5551 5558 5567 5575 5584 5592 5598 5603 5607 5612 5616 5619 5623 5627 5630 5634 5634 5637